Powrót do katalogu

PEGASUS DEB

AktywnyPO
NORAD 24151·DEBRIS·🇺🇸 United States

Wystrzelony May 19, 1994 z Vandenberg Space Force Base

Loading…

Następne Przeloty (najbliższe 24 godziny)

TLE

ŚwieżeSource: Space-Track

Epoka: Sep 14, 2026, 12:35 UTC

1 24151U 94029HA  26257.52448806  .00000887  00000-0  14040-3 0  9991
2 24151  82.0147 102.8197 0150034 123.8980 237.6599 14.63804141605979

Śledź PEGASUS DEB w czasie rzeczywistym z AllMySat

Download on the App Store